sat.trackr.live / text

‹ back to catalog

STARLINK-2567

NORAD 48276 · 2021-036A

PAYLOAD ACTIVE UNKNOWN

§ Identity

Operator
Country
US
Launch date
2021-04-29
Launch site
AFETR
Launch vehicle
Mass (kg)
RCS (m²)

Purposes: comms

External: N2YO · Heavens-Above · Gunter

§ Orbital elements

Epoch: 2026-05-25T03:37:59.232864Z

Period
94.01 min
Inclination
53.1611°
Eccentricity
0.0001254
Mean motion
15.31713037 rev/d
Perigee alt
469.8 km
Apogee alt
471.6 km
Semi-major
6,848.8 km
B*
1.0394e-4
RAAN
55.3011°
Arg perigee
94.8239°
Mean anomaly
265.2905°
Rev number
28,045

§ Raw data

STARLINK-25671 48276U 21036A   26145.15138001  .00002863  00000+0  10394-3 0  99942 48276  53.1611  55.3011 0001254  94.8239 265.2905 15.31713037280457

JSON: /api/v1/satellites/48276 · /tle

For live sub-satellite position, see the globe view (requires WebGL).

§ Visibility from observer

Set your observer location to see the next 7 days of passes ≥ 10°. The values pass through the URL so the page stays shareable.

No JS? Fill the form by hand. The geolocation button needs JavaScript.